Regional Weather Roundup
Issued by NWS Upton, NY

Current Version | Previous Version | Graphics & Text | Print | Product List | Glossary Off
Versions: 1 2 3 4 5 6 7 8 9 10 11 12 13 14 15 16 17 18 19 20 21 22 23 24 25 26 27 28 29 30 31 32 33 34 35 36 37 38 39 40 41 42 43 44 45 46 47 48 49 50

000
ASUS41 KOKX 190705
RWROKX

REGIONAL WEATHER ROUNDUP
NATIONAL WEATHER SERVICE NEW YORK NY
200 AM EST FRI DEC 19 2014

NOTE: "FAIR" INDICATES FEW OR NO CLOUDS BELOW 12,000 FEET WITH NO
SIGNIFICANT WEATHER AND/OR OBSTRUCTIONS TO VISIBILITY.

NYZ071-072-176-178-NJZ106-104-190800-
NEW YORK CITY METRO AREA


CITY           SKY/WX    TMP DP  RH WIND       PRES   REMARKS
CENTRAL PARK   CLOUDY    37  25  61 CALM      29.98S
LAGUARDIA APRT CLOUDY    38  27  64 NW13      29.96S WCI  30
KENNEDY INTL   MOCLDY    38  25  59 NW12      29.98S WCI  30
NEWARK/LIBERTY MOCLDY    36  26  67 NW7       29.98S WCI  30
BRNX BOT. GARD   N/A    N/A N/A N/A W7        29.97R
TETERBORO      CLOUDY    37  25  61 NW12      29.97R WCI  29
$$

NYZ177-179-078>081-190800-
LONG ISLAND NEW YORK

CITY           SKY/WX    TMP DP  RH WIND       PRES   REMARKS
FARMINGDALE    CLOUDY    36  26  67 NW3       29.96S
ISLIP          CLOUDY    33  27  78 W5        29.94S WCI  29
SHIRLEY        CLOUDY    34  28  79 W5        29.96R WCI  30
WESTHAMPTON    CLOUDY    33  27  78 W5        29.96R WCI  29
MONTAUK POINT    N/A     38  27  64 W12G21    29.93R WCI  30
$$

NYZ052-065-067-190800-
HUDSON VALLEY

CITY           SKY/WX    TMP DP  RH WIND       PRES   REMARKS
WHITE PLAINS   MOCLDY    35  25  66 NW10      29.93S WCI  27
NEWBURGH       CLOUDY    34  27  75 NW14      29.96R WCI  24
MONTGOMERY     CLOUDY    35  25  66 NW6       29.95R WCI  30
POUGHKEEPSIE   CLOUDY    37  25  61 NW5       29.95S WCI  33
ALBANY         CLOUDY    32  24  72 W13       29.96R WCI  22
$$

NJZ001-105-106-008-010-013-015-019>022-104-190800-
NEW JERSEY

CITY           SKY/WX    TMP DP  RH WIND       PRES   REMARKS
NEWARK/LIBERTY MOCLDY    36  26  67 NW7       29.98S WCI  30
TETERBORO      CLOUDY    37  25  61 NW12      29.97R WCI  29
CALDWELL       MOCLDY    35  24  64 W7        29.97F WCI  29
MORRISTOWN       N/A     37  25  60 NW8       29.98S WCI  31
SOMERVILLE     CLOUDY    38  23  55 NW8       29.98S WCI  32
SUSSEX         CLOUDY    35  25  66 CALM      29.97R
ANDOVER          N/A     35  24  64 NW6       29.97S WCI  30
TRENTON        CLOUDY    36  25  64 W8        30.00R WCI  30
MILLVILLE      MOCLDY    35  26  69 W9        30.04R WCI  28
ATLANTIC CITY  MOCLDY    35  26  69 W10       30.02R WCI  27
WRIGHTSTOWN    CLOUDY    36  26  67 W8        29.99R WCI  30
TOMS RIVER     PTCLDY    36  27  69 W7        30.01R WCI  30
BELMAR         PTCLDY    36  23  60 W10G16    29.98R WCI  28
$$

PAZ047>061-062-071-190800-
EASTERN PENNSYLVANIA

CITY           SKY/WX    TMP DP  RH WIND       PRES   REMARKS
PHILADELPHIA   CLOUDY    37  25  61 W10       30.04S WCI  30
ALLENTOWN      CLOUDY    36  24  62 W10       30.00S WCI  28
SCRANTON       CLOUDY    34  23  64 NW13      29.98S WCI  25
$$

CTZ002-004>006-009-010-012-RIZ004-006-007-MAZ004-011-015-190800-
SOUTHERN NEW ENGLAND
 IN CT

CITY           SKY/WX    TMP DP  RH WIND       PRES   REMARKS
BRADLEY INTL   CLOUDY    35  24  64 NW8       29.92R WCI  29
HARTFORD       CLOUDY    36  26  67 NW8       29.94R WCI  30
DANBURY        CLOUDY    34  23  64 MISG      29.95R
WTRBRY/OXFORD  CLOUDY    32  21  64 NW5       29.92S WCI  27
BRIDGEPORT     CLOUDY    36  28  73 W5        29.95S WCI  32
MERIDEN        CLOUDY    35  25  66 NW6       29.94R WCI  30
NEW HAVEN      CLOUDY    38  28  67 W5        29.94R WCI  34
CHESTER        CLOUDY    34  28  80 NW6       29.92R WCI  29
GROTON         CLOUDY    34  28  79 W5        29.92R WCI  30
WILLIMANTIC    MOCLDY    35  25  66 W6        29.91S WCI  30

 IN RI

CITY           SKY/WX    TMP DP  RH WIND       PRES   REMARKS
PROVIDENCE     CLOUDY    35  26  69 NW8       29.89S WCI  29
BLOCK ISLAND   CLOUDY    37  25  60 NW8G21    29.90R WCI  31
WESTERLY       CLOUDY    35  26  69 W6        29.91S WCI  30

 IN MA

CITY           SKY/WX    TMP DP  RH WIND       PRES   REMARKS
BOSTON         CLOUDY    37  25  61 W14       29.87R WCI  28
WORCESTER      CLOUDY    31  25  78 W8        29.85R WCI  23
WESTFIELD      CLOUDY    35  24  64 NW12      29.91S WCI  27
PROVINCETOWN   CLOUDY    39  27  60 NW20      29.85R WCI  30
NANTUCKET      PTCLDY    36  28  73 NW8       29.86S WCI  30
$$

ANZ330-335-338-340-345-350-353-355-190800-
COASTAL MARINE OBSERVATIONS


STATION/POSITION TIME  SKY/WX   TEMP    WIND        PRES    VSBY  WAVE
                                AIR SEA DIR/SP/G                  HT/PER
                 (UTC)          (F)     (DEG/KT/KT) (MB)    (MI)  (FT/S)
NY HARB ENTRANCE 0700            40 47  300/ 17/ 21 1014.7          2/ 4
4S FIRE IS       0700               47                N/A           2/ 3
20S FIRE ISLAND  0600            41 49              1014.7          3/ 5
23SW MTP         0700                                 N/A           3/ 5
HUDSON CANYON    0700            42 55  310/ 16/ 19 1013.9          5/ 6
EXECUTION ROCKS  0700            39 42  320/ 12/ 17   N/A
WESTERN LI SOUND 0700            39     300/ 12/ 16   N/A           0
CENTRAL LI SOUND 0600            38 45  300/ 12/ 16   N/A           2/ 3
EASTERN LI SOUND NOT AVBL
ROBBINS REEF     0700            38     330/ 11/ 15 1013.6
$$


>>>>>>>>>>>>>>>>>>>>>>>>>>>> KEY <<<<<<<<<<<<<<<<<<<<<<<<<<<
>                                                          <
>     SKY/WX - SKY CONDITION/PRESENT WEATHER               <
>     TMP    - TEMPERATURE IN FAHRENHEIT                   <
>     DP     - DEWPOINT IN FAHRENHEIT                      <
>     RH     - RELATIVE HUMIDITY IN PERCENT                <
>     WIND   - DIRECTION AND SPEED IN MPH                  <
>     PRES   - MEAN SEA LEVEL PRESSURE IN INCHES OF HG     <
>     WCI    - WIND CHILL INDEX                            <
>     VSB    - VISIBILITY IN MILES                         <
>     HX     - HEAT INDEX                                  <
>     TC     - TEMPERATURE IN CELSIUS                      <
>     VRB    - VARIABLE WIND DIRECTION                     <
>                                                          <
>>>>>>>>>>>>>>>>>>>>>>>>>>>> KEY <<<<<<<<<<<<<<<<<<<<<<<<<<<





USA.gov is the U.S. government's official web portal to all federal, state and local government web resources and services.